Flag for United Kingdom

Past Weather in Norwich, England, United Kingdom — Yesterday and Last 2 Weeks

Now
68 °F

Mild.


Feels Like: 68 °F
Forecast: 64 / 53 °F
Wind: 9 mph from Southwest

Location: Norwich Weather Centre
Current Time: Sep 22, 2020 at 9:51:29 pm
Latest Report: Sep 22, 2020 at 8:50 pm
Visibility: N/A
Pressure29.65 "Hg
Humidity: 56%
Dew Point: 52 °F
Location of NorwichLocation

Past Weather in Norwich — Graph

°F

Norwich Temperature Yesterday

Maximum temperature yesterday: 73 °F (at 2:50 pm)
Minimum temperature yesterday: 46 °F (at 5:50 am)
Average temperature yesterday: 60 °F

High & Low Weather Summary for the Past Weeks

 TemperatureHumidityPressure
High79 °F (Sep 14, 1:20 pm)94% (Sep 14, 4:20 am)30.45 "Hg (Sep 14, 4:20 am)
Low46 °F (Sep 11, 5:50 am)38% (Sep 21, 3:50 pm)29.65 "Hg (Sep 22, 5:20 pm)
Average62 °F74%30.14 "Hg
* Reported Sep 7 8:20 pm — Sep 22 8:50 pm, Norwich. Weather by CustomWeather, © 2020

Note: Actual official high and low records may vary slightly from our data, if they occured in-between our weather recording intervals... More about our weather records

Norwich Weather History for the Previous 24 Hours

Scroll right to see more
 ConditionsComfort  
Time TempWeatherWind HumidityBarometerVisibility
8:50 pm
Tue, Sep 22
68 °FMild.9 mph56%29.65 "HgN/A
8:20 pm70 °FMild.8 mph57%29.65 "HgN/A
7:20 pm72 °FPassing clouds.8 mph53%29.65 "HgN/A
6:50 pm73 °FPassing clouds.9 mph53%29.65 "HgN/A
6:20 pm73 °FPassing clouds.8 mph53%29.65 "HgN/A
5:50 pm75 °FPassing clouds.12 mph50%29.65 "HgN/A
5:20 pm77 °FPassing clouds.12 mph51%29.65 "HgN/A
4:50 pm77 °FPassing clouds.13 mph51%29.68 "HgN/A
4:20 pm77 °FPassing clouds.13 mph51%29.68 "HgN/A
3:50 pm77 °FPassing clouds.10 mph51%29.71 "HgN/A
3:20 pm77 °FPassing clouds.10 mph47%29.71 "HgN/A
2:50 pm77 °FPassing clouds.10 mph47%29.74 "HgN/A
2:20 pm77 °FPassing clouds.10 mph47%29.74 "HgN/A
1:50 pm77 °FPassing clouds.10 mph47%29.74 "HgN/A
1:20 pm77 °FPassing clouds.12 mph47%29.77 "HgN/A
12:50 pm75 °FPassing clouds.14 mph50%29.77 "HgN/A
12:20 pm75 °FPassing clouds.13 mph50%29.80 "HgN/A
11:50 am73 °FSunny.12 mph57%29.80 "Hg10 mi
11:20 am72 °FPassing clouds.10 mph61%29.80 "HgN/A
10:50 am70 °FPassing clouds.8 mph64%29.83 "HgN/A
10:20 am70 °FPassing clouds.8 mph69%29.83 "HgN/A
9:50 am68 °FScattered clouds.6 mph73%29.86 "HgN/A
9:20 am64 °FScattered clouds.6 mph78%29.86 "HgN/A
8:50 am61 °FSunny.6 mph88%29.86 "Hg10 mi
8:20 am57 °FSunny.3 mph88%29.86 "Hg10 mi
7:50 am55 °FSunny.2 mph88%29.86 "Hg10 mi
7:20 am52 °FCool.3 mph94%29.86 "HgN/A
6:50 am52 °FCool.2 mph88%29.86 "HgN/A
6:20 am52 °FCool.2 mph88%29.86 "HgN/A
5:50 am52 °FCool.3 mph88%29.86 "HgN/A
5:20 am52 °FCool.6 mph88%29.86 "HgN/A
4:50 am52 °FCool.6 mph88%29.86 "HgN/A
4:20 am52 °FCool.5 mph88%29.89 "HgN/A
3:50 am52 °FCool.5 mph88%29.89 "HgN/A
3:20 am52 °FCool.2 mph88%29.89 "HgN/A
2:50 am52 °FCool.3 mph94%29.92 "HgN/A
2:20 am54 °FCool.3 mph88%29.92 "HgN/A
1:50 am54 °FCool.3 mph88%29.92 "HgN/A
1:20 am54 °FCool.1 mph88%29.95 "HgN/A
12:50 am54 °FCool.No wind88%29.95 "HgN/A
12:20 am55 °FCool.2 mph88%29.95 "HgN/A
11:50 pm
Mon, Sep 21
55 °FCool.3 mph94%29.95 "HgN/A
11:20 pm54 °FCool.3 mph94%29.95 "HgN/A
10:50 pm55 °FCool.2 mph94%29.98 "Hg4 mi
10:20 pm55 °FCool.2 mph88%29.98 "HgN/A
9:50 pm55 °FCool.2 mph94%29.98 "HgN/A
9:20 pm55 °FCool.1 mph88%29.98 "HgN/A
Weather by CustomWeather, © 2020

See weather overview